EW1425 Fairhaven MA US current weather conditions

sailwx.info

Wind from 335

Air temperature 23.3° C
Dewpoint 17.1° C

Last reported at 2019-Aug-23 21:00 UTC.
Time now 2019-Aug-23 22:07 UTC

Location: N 41°38' W 070°54'.
View on Google Maps.

See reports from other nearby stations

  
Tides and Currents Weather Stations Pressure Air Temp Water Temp Dewpoint Dewpoint Depression Visibility Wind Speed Wind Dir Waves Ship Positions
date/time (UTC)wind fromknots sea level pressurealtimeterstation pressurevisibilityair tempwater tempwave heightnotes
2019-Aug-23 21:00 335 23.3
2019-Aug-23 20:45 327 23.3
2019-Aug-23 20:31 316 23.3
2019-Aug-23 20:15 333 23.9
2019-Aug-23 20:00 320 23.9
2019-Aug-23 19:45 337 23.9
2019-Aug-23 19:30 068 23.9
2019-Aug-23 19:15 349 23.3
2019-Aug-23 19:00 340 23.3
2019-Aug-23 18:45 032 23.3
2019-Aug-23 18:30 335 22.8
2019-Aug-23 18:15 328 22.8
2019-Aug-23 18:00 333 22.8
2019-Aug-23 17:45 337 22.2
2019-Aug-23 17:32 252 22.2
2019-Aug-23 17:17 331 21.1
2019-Aug-23 17:02 300 20.6
2019-Aug-23 16:46 304 20.6
2019-Aug-23 16:31 342 20.0
2019-Aug-23 16:17 345 19.4
2019-Aug-23 16:01 226 18.9
2019-Aug-23 15:46 248 18.3
2019-Aug-23 15:32 311 18.3
2019-Aug-23 15:16 323 18.3
2019-Aug-23 15:01 323 17.8
2019-Aug-23 14:47 323 17.8
2019-Aug-23 14:33 323 17.2
2019-Aug-23 14:16 323 17.2
2019-Aug-23 14:01 323 17.2
2019-Aug-23 13:47 334 17.2
2019-Aug-23 13:31 325 17.8
2019-Aug-23 13:16 335 17.8
2019-Aug-23 13:01 330 18.3
2019-Aug-23 12:45 326 18.3
2019-Aug-23 12:31 329 19.4
2019-Aug-23 12:16 330 20.6
2019-Aug-23 12:01 331 20.6
2019-Aug-23 11:46 340 21.1
2019-Aug-23 11:30 342 21.1
2019-Aug-23 11:16 345 21.1
2019-Aug-23 11:00 334 21.1
2019-Aug-23 10:45 321 21.1
2019-Aug-23 10:30 316 21.1
2019-Aug-23 10:15 326 21.1
2019-Aug-23 10:00 338 21.7
2019-Aug-23 09:45 328 21.7
2019-Aug-23 09:30 328 21.7
2019-Aug-23 09:15 037 21.7
2019-Aug-23 09:00 312 22.2
2019-Aug-23 08:46 326 22.2
2019-Aug-23 08:33 335 22.2
2019-Aug-23 08:16 338 22.8
2019-Aug-23 08:03 319 0 gusting 2 22.8
2019-Aug-23 07:46 323 22.8
2019-Aug-23 07:32 330 22.8
2019-Aug-23 07:16 017 22.8
2019-Aug-23 07:01 017 22.8
2019-Aug-23 06:46 025 22.8
2019-Aug-23 06:31 025 22.8
2019-Aug-23 06:17 025 23.3
2019-Aug-23 06:01 026 23.3
2019-Aug-23 05:47 354 23.3
2019-Aug-23 05:31 356 23.9
2019-Aug-23 05:16 004 23.9
2019-Aug-23 05:01 225 23.9
2019-Aug-23 04:45 267 23.9
2019-Aug-23 04:31 268 23.9
2019-Aug-23 04:15 268 23.9
2019-Aug-23 04:01 266 23.9
2019-Aug-23 03:45 266 23.9
2019-Aug-23 03:30 266 23.9
2019-Aug-23 03:16 224 24.4
2019-Aug-23 03:01 214 24.4
2019-Aug-23 02:46 226 24.4
2019-Aug-23 02:30 220 24.4
2019-Aug-23 02:16 220 24.4
2019-Aug-23 02:01 220 25.0
2019-Aug-23 01:45 219 25.6
2019-Aug-23 01:30 219 25.6
2019-Aug-23 01:15 233 25.6
2019-Aug-23 01:00 262 25.6
2019-Aug-23 00:46 221 25.6
2019-Aug-23 00:30 207 25.6
2019-Aug-23 00:15 245 25.6
2019-Aug-23 00:01 211 26.1
2019-Aug-22 23:45 234 26.1
2019-Aug-22 23:30 224 26.1
2019-Aug-22 23:15 183 26.7
2019-Aug-22 23:00 229 26.7
2019-Aug-22 22:45 205 27.2
2019-Aug-22 22:30 215 27.2
2019-Aug-22 22:16 229 27.8
2019-Aug-22 22:00 215 0 gusting 3 27.8
2019-Aug-22 21:45 213 28.3
2019-Aug-22 21:30 213 0 gusting 3 28.3
2019-Aug-22 21:15 257 28.3
2019-Aug-22 21:00 186 0 gusting 4 28.3
2019-Aug-22 20:46 246 0 gusting 3 28.3
2019-Aug-22 20:30 240 1 gusting 4 28.9
2019-Aug-22 20:15 258 28.9
2019-Aug-22 20:00 214 0 gusting 4 28.3
2019-Aug-22 19:45 206 28.3
2019-Aug-22 19:30 273 28.3
2019-Aug-22 19:15 004 27.8
2019-Aug-22 19:00 167 1 gusting 6 27.2
2019-Aug-22 18:45 216 0 gusting 5 26.1
2019-Aug-22 18:30 205 2 gusting 6 26.1
2019-Aug-22 18:15 227 1 gusting 7 26.7
2019-Aug-22 18:00 228 1 gusting 6 26.1
2019-Aug-22 17:45 210 1 gusting 4 26.1
2019-Aug-22 17:30 243 0 gusting 13 26.1
2019-Aug-22 17:15 342 1 gusting 6 28.3
2019-Aug-22 17:02 217 0 gusting 6 28.3
2019-Aug-22 16:47 250 1 gusting 6 28.9
2019-Aug-22 16:32 238 1 gusting 5 28.9
2019-Aug-22 16:17 247 0 gusting 3 28.9
2019-Aug-22 16:01 217 28.3
2019-Aug-22 15:47 207 2 gusting 3 27.8
2019-Aug-22 15:31 230 27.2
2019-Aug-22 15:16 160 0 gusting 5 26.1
2019-Aug-22 15:01 204 0 gusting 5 26.1
2019-Aug-22 14:46 238 0 gusting 3 26.1
2019-Aug-22 14:32 205 0 gusting 3 25.6
2019-Aug-22 14:16 215 25.6
2019-Aug-22 14:01 229 1 gusting 4 25.6
2019-Aug-22 13:46 224 25.6
2019-Aug-22 13:31 222 25.6
2019-Aug-22 13:15 225 25.0
2019-Aug-22 13:00 221 24.4
2019-Aug-22 12:45 335 24.4
2019-Aug-22 12:31 217 23.9
2019-Aug-22 12:15 221 23.9
2019-Aug-22 12:00 215 23.9
2019-Aug-22 11:46 222 23.9
2019-Aug-22 11:30 237 23.3
2019-Aug-22 11:15 229 23.3
2019-Aug-22 11:00 234 23.3
2019-Aug-22 10:45 233 23.3
2019-Aug-22 10:30 233 23.3
2019-Aug-22 10:15 234 22.8
2019-Aug-22 10:00 216 22.8
2019-Aug-22 09:45 218 23.3
2019-Aug-22 09:30 231 23.3
2019-Aug-22 09:15 224 23.3
2019-Aug-22 09:00 226 23.9
2019-Aug-22 08:45 230 23.9
2019-Aug-22 08:30 240 23.9
2019-Aug-22 08:15 302 24.4
2019-Aug-22 08:03 302 24.4
2019-Aug-22 07:47 015 24.4
2019-Aug-22 07:31 356 24.4
2019-Aug-22 07:17 044 24.4
2019-Aug-22 07:02 214 24.4
2019-Aug-22 06:46 336 24.4
2019-Aug-22 06:31 006 0 gusting 2 24.4
2019-Aug-22 06:16 201 24.4
2019-Aug-22 06:01 197 24.4
2019-Aug-22 05:46 226 25.0
2019-Aug-22 05:31 257 0 gusting 1 25.0
2019-Aug-22 05:16 240 25.0
2019-Aug-22 05:01 247 25.0
2019-Aug-22 04:46 160 25.0
2019-Aug-22 04:31 210 0 gusting 2 25.0
2019-Aug-22 04:17 002 25.0
2019-Aug-22 04:00 013 25.0
2019-Aug-22 03:46 037 25.0
2019-Aug-22 03:30 082 0 gusting 5 25.0
2019-Aug-22 03:16 025 25.0
2019-Aug-22 03:00 013 0 gusting 4 25.0
2019-Aug-22 02:46 226 25.0
2019-Aug-22 02:31 034 0 gusting 4 25.0
2019-Aug-22 02:16 057 25.0
2019-Aug-22 02:01 203 0 gusting 6 25.0
2019-Aug-22 01:46 283 0 gusting 5 25.0
2019-Aug-22 01:30 234 25.0
2019-Aug-22 01:15 288 1 gusting 6 25.0
2019-Aug-22 01:01 205 1 gusting 5 25.0
2019-Aug-22 00:45 212 1 gusting 5 25.0
2019-Aug-22 00:30 236 0 gusting 8 25.0
2019-Aug-22 00:15 207 0 gusting 3 25.0
2019-Aug-22 00:00 207 1 gusting 4 25.0
2019-Aug-21 23:46 207 0 gusting 3 25.0
2019-Aug-21 23:30 201 1 gusting 6 25.0
2019-Aug-21 23:15 221 1 gusting 6 25.0
2019-Aug-21 23:00 206 1 gusting 6 25.0
2019-Aug-21 22:45 220 1 gusting 7 25.6
2019-Aug-21 22:30 223 0 gusting 4 25.6
2019-Aug-21 22:15 218 1 gusting 6 25.6
2019-Aug-21 22:01 211 1 gusting 6 26.1